"Pseudo-MPEC" for P22oVOx

Created 2026 Aug 11 13:35:16 UT using Find_Orb

Click here for an explanation of pseudo-MPECs

 
 Astrometry: 
     P22oVOx 0C2026 08 05.43069922 34 10.123+08 34 25.40   ~87Ko 21.17GVNEOCPF52
     P22oVOx 0C2026 08 05.44347322 34 10.061+08 34 33.86   ~87Ko 21.45GVNEOCPF52
     P22oVOx 0C2026 08 05.45633122 34 09.972+08 34 42.06   ~87Ko 21.19GVNEOCPF52
     P22oVOx*0C2026 08 07.37935322 34 05.689+08 54 46.54   ~87BZ 21.49wXNEOCPF52
     P22oVOx 0C2026 08 07.38955122 34 05.614+08 54 52.87   ~87BZ 21.65wXNEOCPF52
     P22oVOx 0C2026 08 07.39969022 34 05.543+08 54 59.14   ~87BZ 21.56wXNEOCPF52
     P22oVOx 0C2026 08 07.40983822 34 05.470+08 55 05.44   ~87BZ 21.40wXNEOCPF52
     P22oVOx 0C2026 08 07.50662222 34 04.687+08 56 04.71   ~87HK 21.44GVNEOCPF51
     P22oVOx 0C2026 08 07.50744322 34 04.682+08 56 05.19   ~87HK 21.29GVNEOCPF51
     P22oVOx KC2026 08 08.31654722 34 00.95 +09 04 09.7    ~8885 21.4 GVNEOCPH21
     P22oVOx KC2026 08 08.31953122 34 00.92 +09 04 11.3    ~8885 21.4 GVNEOCPH21

Station data:
(F51) Pan-STARRS 1, Haleakala  (N20.707234 W156.255910)  US/Hawaii.
   Observers J. Herman, T. Lowe, P. Minguez, A. Schultz, I. Smith. Measurers
   K. Chambers, T. de Boer, J. Fairlamb, H. Gao, M. Huber, C.-C. Lin, E.
   Magnier, Y. Ramanjooloo, R. Wainscoat, R. Weryk. 1.8-m Ritchey-Chrétien +
   CCD.
(F52) Pan-STARRS 2, Haleakala  (N20.707382 W156.255910)  US/Hawaii.
   Observers J. Herman, T. Lowe, P. Minguez, A. Schultz, I. Smith. Measurers
   K. Chambers, T. de Boer, J. Fairlamb, H. Gao, M. Huber, C.-C. Lin, E.
   Magnier, Y. Ramanjooloo, R. Wainscoat, R. Weryk. 1.8-m Ritchey-Chrétien +
   CCD.
(H21) Astronomical Research Observatory, Westfield  (N39.483054 W87.968270)
   US/Illinois.  Observer R. Holmes. Measurers S. Foglia, L. Buzzi, T.
   Linder, R. Holmes. 0.40-m f/5.32 astrograph + CCD.

Orbital elements:  P22oVOx
   Perihelion 2026 Sep 30.493812 +/- 3.87 TT = 11:51:05.3 (JD 2461313.993812)
Epoch 2026 Aug  8.0 TT = JDT 2461260.5   Earth MOID: 0.6957      AutoNEOCP
M 350.971341965 +/- 0.9             (J2000 ecliptic)
n   0.168779484 +/- 0.00617         Peri.   96.294962 +/- 3.1
a   3.242820766 +/- 0.079           Node   260.120944 +/- 0.9
e   0.48341988 +/- 0.00799          Incl.    8.250385 +/- 0.09
P   5.83962                H 19.83  G  0.15   U  9.3
q 1.675176712 +/- 0.0162    Q 4.810464820 +/- 0.143
From 11 observations 2026 Aug. 5-8; mean residual 0".08
Residuals in arcseconds: 
260805 F52  .13+  .11-    260807 F52  .06-  .01-    260807 F51  .04+  .01-    
260805 F52  .12+  .10+    260807 F52  .01-  .00     260808 H21  .01-  .09+    
260805 F52  .26-  .01+    260807 F52  .03+  .04+    260808 H21  .07-  .09-    
260807 F52  .02-  .04-    260807 F51  .01+  .01+    

Ephemerides (geocentric):
Date (UTC) HH   RA             Dec           delta  r     elong  mag " sig PA
---- --------  ------------   ------------  ------ ------ -----  --- --------
2026 08 11 14  22 33 36.362   +09 35 11.19  .78451 1.7367 149.8 21.4 2.23  87
2026 08 11 15  22 33 35.952   +09 35 33.64  .78429 1.7366 149.8 21.4 2.27  87
2026 08 11 16  22 33 35.540   +09 35 56.07  .78408 1.7365 149.8 21.4 2.31  87
2026 08 11 17  22 33 35.126   +09 36 18.46  .78386 1.7364 149.8 21.4 2.35  87
2026 08 11 18  22 33 34.709   +09 36 40.82  .78365 1.7363 149.9 21.4 2.39  87
2026 08 11 19  22 33 34.290   +09 37 03.14  .78343 1.7362 149.9 21.4 2.43  87
2026 08 11 20  22 33 33.869   +09 37 25.44  .78322 1.7361 149.9 21.4 2.47  87
2026 08 11 21  22 33 33.446   +09 37 47.71  .78300 1.7360 149.9 21.4 2.51  87
2026 08 11 22  22 33 33.020   +09 38 09.94  .78279 1.7359 150.0 21.4 2.55  87
2026 08 11 23  22 33 32.592   +09 38 32.14  .78258 1.7358 150.0 21.4 2.60  87
2026 08 12 00  22 33 32.162   +09 38 54.31  .78236 1.7357 150.0 21.4 2.64  87
2026 08 12 01  22 33 31.729   +09 39 16.45  .78215 1.7356 150.1 21.4 2.68  87
2026 08 12 02  22 33 31.294   +09 39 38.55  .78194 1.7355 150.1 21.4 2.72  87
2026 08 12 03  22 33 30.857   +09 40 00.62  .78173 1.7354 150.1 21.4 2.77  87
2026 08 12 04  22 33 30.417   +09 40 22.67  .78151 1.7354 150.1 21.4 2.81  87
2026 08 12 05  22 33 29.975   +09 40 44.67  .78130 1.7353 150.2 21.4 2.85  87
2026 08 12 06  22 33 29.531   +09 41 06.65  .78109 1.7352 150.2 21.4 2.90  87
2026 08 12 07  22 33 29.085   +09 41 28.60  .78088 1.7351 150.2 21.4 2.94  87
2026 08 12 08  22 33 28.636   +09 41 50.51  .78067 1.7350 150.3 21.4 2.99  87
2026 08 12 09  22 33 28.186   +09 42 12.39  .78046 1.7349 150.3 21.4 3.03  87
2026 08 12 10  22 33 27.732   +09 42 34.24  .78025 1.7348 150.3 21.4 3.08  87
2026 08 12 11  22 33 27.277   +09 42 56.05  .78004 1.7347 150.3 21.4 3.12  87
2026 08 12 12  22 33 26.819   +09 43 17.84  .77983 1.7346 150.4 21.4 3.17  87
2026 08 12 13  22 33 26.360   +09 43 39.59  .77962 1.7345 150.4 21.4 3.22  86
2026 08 12 14  22 33 25.897   +09 44 01.31  .77941 1.7344 150.4 21.4 3.26  86
2026 08 12 15  22 33 25.433   +09 44 23.00  .77920 1.7343 150.5 21.4 3.31  86
2026 08 12 16  22 33 24.967   +09 44 44.65  .77899 1.7342 150.5 21.4 3.36  86
2026 08 12 17  22 33 24.498   +09 45 06.27  .77878 1.7341 150.5 21.4 3.41  86
2026 08 12 18  22 33 24.027   +09 45 27.86  .77858 1.7340 150.5 21.4 3.45  86
2026 08 12 19  22 33 23.553   +09 45 49.42  .77837 1.7339 150.6 21.4 3.50  86
2026 08 12 20  22 33 23.078   +09 46 10.95  .77816 1.7338 150.6 21.4 3.55  86
2026 08 12 21  22 33 22.600   +09 46 32.44  .77795 1.7337 150.6 21.4 3.60  86
2026 08 12 22  22 33 22.120   +09 46 53.90  .77775 1.7336 150.6 21.4 3.65  86
2026 08 12 23  22 33 21.638   +09 47 15.33  .77754 1.7335 150.7 21.4 3.70  86
2026 08 13 00  22 33 21.154   +09 47 36.72  .77733 1.7334 150.7 21.4 3.75  86
2026 08 13 01  22 33 20.667   +09 47 58.08  .77713 1.7333 150.7 21.4 3.80  86
2026 08 13 02  22 33 20.178   +09 48 19.41  .77692 1.7332 150.8 21.4 3.85  86
2026 08 13 03  22 33 19.687   +09 48 40.71  .77672 1.7331 150.8 21.4 3.90  86
2026 08 13 04  22 33 19.194   +09 49 01.97  .77651 1.7330 150.8 21.4 3.96  86
2026 08 13 05  22 33 18.699   +09 49 23.20  .77631 1.7329 150.8 21.4 4.01  86
2026 08 13 06  22 33 18.201   +09 49 44.40  .77610 1.7328 150.9 21.4 4.06  86
2026 08 13 07  22 33 17.702   +09 50 05.57  .77590 1.7327 150.9 21.4 4.11  86
2026 08 13 08  22 33 17.200   +09 50 26.70  .77569 1.7326 150.9 21.4 4.17  86
2026 08 13 09  22 33 16.696   +09 50 47.80  .77549 1.7325 150.9 21.4 4.22  86
2026 08 13 10  22 33 16.190   +09 51 08.87  .77529 1.7324 151.0 21.4 4.27  86
2026 08 13 11  22 33 15.681   +09 51 29.90  .77508 1.7323 151.0 21.3 4.33  86
2026 08 13 12  22 33 15.171   +09 51 50.90  .77488 1.7322 151.0 21.3 4.38  86
2026 08 13 13  22 33 14.658   +09 52 11.87  .77468 1.7321 151.1 21.3 4.44  86